Regional Weather Roundup
Issued by NWS

Home | Current Version | Previous Version | Text Only | Print | Product List | Glossary On
Versions: 1 2 3 4 5 6 7 8 9 10 11 12 13 14 15 16 17 18 19 20 21 22 23 24 25 26 27 28 29 30 31 32 33 34 35 36 37 38 39 40 41 42 43 44 45 46 47 48 49 50
000
ASUS44 KOUN 031300
RWROK

WEATHER ROUNDUP FOR OKLAHOMA
NATIONAL WEATHER SERVICE NORMAN OK
800 AM CDT THU SEP 03 2015

NOTE: "FAIR" INDICATES FEW OR NO CLOUDS BELOW 12,000 FEET WITH NO
      SIGNIFICANT WEATHER AND/OR OBSTRUCTIONS TO VISIBILITY.

OKZ001>007-009>012-014-015-017-031400-
NORTHWEST OKLAHOMA AND THE PANHANDLE

CITY           SKY/WX    TMP DP  RH WIND       PRES   REMARKS
GAGE           CLEAR     72  59  63 S16       29.93S
GUYMON         CLEAR     65  55  70 S7        29.92S
$$

OKZ016-021>023-033>039-044-045-031400-
SOUTHWEST OKLAHOMA

CITY           SKY/WX    TMP DP  RH WIND       PRES   REMARKS
LAWTON/REGL    CLEAR     70  63  78 E3        29.98R
LAWTON/FT SILL CLEAR     70  65  84 S5        29.97R
FREDERICK      CLEAR     70  65  84 SE8       29.94S
CLINTON        CLEAR     73  61  65 S15       29.99R
HOBART         CLEAR     73  63  70 S12       29.97R
ALTUS AFB      PTCLDY    70  62  77 SE12      29.96R
$$

OKZ018>020-024>031-031400-
CENTRAL OKLAHOMA

CITY           SKY/WX    TMP DP  RH WIND       PRES   REMARKS
OKLAHOMA CITY  MOSUNNY   69  65  86 S5        29.99R
OKC/WILEY POST SUNNY     73  64  73 S13       29.98R
OKC/TINKER AFB SUNNY     71  65  80 S12       29.99R
STILLWATER     MOSUNNY   71  65  81 S6        29.98R
GUTHRIE        SUNNY     75  64  68 S9        29.98R
$$

OKZ008-013-054>072-031400-
NORTHEAST OKLAHOMA

CITY           SKY/WX    TMP DP  RH WIND       PRES   REMARKS
TULSA          MOSUNNY   74  69  85 S6        29.98R
TULSA/JONES    SUNNY     71  67  87 CALM      29.99R
PONCA CITY     MOSUNNY   75  65  70 S6        29.96R
BARTLESVILLE   SUNNY     67  67 100 CALM      29.99S
MUSKOGEE       SUNNY     72  69  90 S6        30.01R
$$

OKZ032-040>043-046>053-073>077-031400-
SOUTH CENTRAL/SOUTHEAST OKLAHOMA

CITY           SKY/WX    TMP DP  RH WIND       PRES   REMARKS
MCALESTER      MOSUNNY   74  67  78 CALM      30.01R
$$



USA.gov is the U.S. government's official web portal to all federal, state and local government web resources and services.